GSAT0104 (GALILEO-FM4)

Last updated on Nov. 18, 2019, 4:21 a.m. UTC

1 38858U 12055B   19320.99878874  .00000083  00000-0  00000+0 0  9990
2 38858  54.9472 167.6588 0000183  24.6216 335.4617  1.70473772 44127
UTC
Height (km)
Latitude
Longitude
Inclination
Orbital Period
UTC large
Height (km)
Speed (km/s)
/
Latitude / Longitude
Inclination (degrees)
Orbital Period (minutes)
Azimuth
Elevation
Range (km)
Doppler Factor
iOS Compass Heading
iOS Angle

Next 30 passes for location: Hong Kong

Rise time Rise Azimuth (degrees) Set time Set Azimuth (degrees) Duration Max altitude (degrees)

No matching passes for this satellites